Location: Huberhof
(49.2050°N, 7.4980°E)
Time: 04:24:26
(UTC+00:00)

Cosmos 2297 Rocket - Pass Details

Date: 29 October 2020
Orbit: 838 x 845 km, 71.0° (Epoch: 25 November)

Event Time Altitude Azimuth Distance (km) Brightness Sun altitude
Rises 17:30:07 0° 329° (NNW) 3,415 5.7 -13.0°
Reaches altitude 10° 17:32:36 10° 326° (NNW) 2,476 5.0 -13.4°
Maximum altitude 17:38:12 63° 247° (WSW) 942 2.7 -14.4°
Drops below altitude 10° 17:43:46 10° 168° (SSE) 2,458 4.5 -15.3°
Sets 17:46:13 0° 165° (SSE) 3,388 5.2 -15.7°
